H1 CPF 2 NER 2021 8 31 9 243 01 glonass121 H2 1000702 9121 36401 2021 8 31 0 0 0 2021 9 3 23 45 0 900 1 1 0 0 0 1 H9 10 0 59457 0.00000 0 -18592119.987 -3212291.815 17194190.224 10 0 59457 900.00000 0 -20360837.261 -4118769.060 14846291.507 10 0 59457 1800.00000 0 -21922989.708 -4744180.653 12210854.876 10 0 59457 2700.00000 0 -23219738.831 -5110163.895 9339065.374 10 0 59457 3600.00000 0 -24199830.156 -5249509.002 6286606.592 10 0 59457 4500.00000 0 -24821706.189 -5204519.078 3112586.205 10 0 59457 5400.00000 0 -25055232.539 -5024977.804 -121599.077 10 0 59457 6300.00000 0 -24882966.810 -4765810.896 -3353438.014 10 0 59457 7200.00000 0 -24300918.816 -4484539.651 -6520497.091 10 0 59457 8100.00000 0 -23318771.496 -4238633.114 -9561608.827 10 0 59457 9000.00000 0 -21959553.858 -4082869.161 -12418034.697 10 0 59457 9900.00000 0 -20258779.488 -4066814.250 -15034581.702 10 0 59457 10800.00000 0 -18263085.753 -4232526.571 -17360652.677 10 0 59457 11700.00000 0 -16028428.952 -4612578.240 -19351211.579 10 0 59457 12600.00000 0 -13617908.633 -5228479.219 -20967646.328 10 0 59457 13500.00000 0 -11099309.271 -6089569.423 -22178513.604 10 0 59457 14400.00000 0 -8542459.010 -7192426.643 -22960151.747 10 0 59457 15300.00000 0 -6016512.899 -8520816.992 -23297149.927 10 0 59457 16200.00000 0 -3587271.430 -10046192.606 -23182664.050 10 0 59457 17100.00000 0 -1314644.145 -11728718.957 -22618572.136 10 0 59457 18000.00000 0 749637.048 -13518792.113 -21615464.562 10 0 59457 18900.00000 0 2563960.015 -15358985.849 -20192467.299 10 0 59457 19800.00000 0 4098348.662 -17186350.026 -18376899.188 10 0 59457 20700.00000 0 5335488.970 -18934966.198 -16203767.548 10 0 59457 21600.00000 0 6271220.646 -20538654.723 -13715109.573 10 0 59457 22500.00000 0 6914472.305 -21933720.095 -10959190.366 10 0 59457 23400.00000 0 7286641.563 -23061618.458 -7989571.861 10 0 59457 24300.00000 0 7420445.246 -23871433.507 -4864070.028 10 0 59457 25200.00000 0 7358287.931 -24322054.238 -1643620.706 10 0 59457 26100.00000 0 7150218.187 -24383960.033 1608922.897 10 0 59457 27000.00000 0 6851560.254 -24040535.081 4830036.082 10 0 59457 27900.00000 0 6520323.476 -23288854.215 7956785.564 10 0 59457 28800.00000 0 6214501.830 -22139905.136 10928082.211 10 0 59457 29700.00000 0 5989380.897 -20618236.594 13685896.736 10 0 59457 30600.00000 0 5894969.380 -18761047.079 16176412.260 10 0 59457 31500.00000 0 5973666.578 -16616753.113 18351089.207 10 0 59457 32400.00000 0 6258266.729 -14243098.620 20167620.384 10 0 59457 33300.00000 0 6770386.028 -11704886.519 21590756.909 10 0 59457 34200.00000 0 7519379.371 -9071429.639 22592988.757 10 0 59457 35100.00000 0 8501792.362 -6413829.370 23155067.379 10 0 59457 36000.00000 0 9701370.817 -3802197.102 23266361.406 10 0 59457 36900.00000 0 11089625.977 -1302935.086 22925040.158 10 0 59457 37800.00000 0 12626930.021 1023810.141 22138083.352 10 0 59457 38700.00000 0 14264094.215 3126416.856 20921118.841 10 0 59457 39600.00000 0 15944361.970 4963687.175 19298093.532 10 0 59457 40500.00000 0 17605732.151 6506299.709 17300785.672 10 0 59457 41400.00000 0 19183514.729 7737758.622 14968169.461 10 0 59457 42300.00000 0 20613011.684 8654803.005 12345645.482 10 0 59457 43200.00000 0 21832211.518 9267263.120 9484152.612 10 0 59457 44100.00000 0 22784385.648 9597372.811 6439178.904 10 0 59457 45000.00000 0 23420479.438 9678569.630 3269690.627 10 0 59457 45900.00000 0 23701199.508 9553835.109 36999.683 10 0 59457 46800.00000 0 23598711.692 9273646.108 -3196409.440 10 0 59457 47700.00000 0 23097880.109 8893623.771 -6368071.546 10 0 59457 48600.00000 0 22196996.750 8471978.672 -9416729.703 10 0 59457 49500.00000 0 20907971.681 8066858.688 -12283499.887 10 0 59457 50400.00000 0 19255975.952 7733709.892 -14912990.295 10 0 59457 51300.00000 0 17278551.395 7522760.031 -17254355.354 10 0 59457 52200.00000 0 15024223.023 7476729.104 -19262265.637 10 0 59457 53100.00000 0 12550669.862 7628862.303 -20897776.147 10 0 59457 54000.00000 0 9922527.886 8001367.622 -22129077.293 10 0 59457 54900.00000 0 7208913.646 8604324.110 -22932114.593 10 0 59457 55800.00000 0 4480768.872 9435107.786 -23291065.163 10 0 59457 56700.00000 0 1808133.763 10478361.268 -23198661.322 10 0 59457 57600.00000 0 -742539.837 11706511.053 -22656353.954 10 0 59457 58500.00000 0 -3110925.153 13080813.801 -21674310.866 10 0 59457 59400.00000 0 -5245102.366 14552890.973 -20271248.153 10 0 59457 60300.00000 0 -7103490.718 16066690.547 -18474095.470 10 0 59457 61200.00000 0 -8656349.572 17560795.963 -16317499.342 10 0 59457 62100.00000 0 -9886784.586 18970987.176 -13843171.815 10 0 59457 63000.00000 0 -10791215.497 20232946.977 -11099095.138 10 0 59457 63900.00000 0 -11379284.362 21284998.481 -8138596.558 10 0 59457 64800.00000 0 -11673206.985 22070757.291 -5019310.486 10 0 59457 65700.00000 0 -11706594.180 22541584.474 -1802048.226 10 0 59457 66600.00000 0 -11522792.587 22658734.222 1450401.776 10 0 59457 67500.00000 0 -11172816.031 22395102.633 4674518.333 10 0 59457 68400.00000 0 -10712956.528 21736500.998 7807310.194 10 0 59457 69300.00000 0 -10202178.369 20682397.429 10787569.904 10 0 59457 70200.00000 0 -9699408.374 19246093.827 13557091.881 10 0 59457 71100.00000 0 -9260839.992 17454329.810 16061828.596 10 0 59457 72000.00000 0 -8937368.132 15346330.289 18252960.225 10 0 59457 72900.00000 0 -8772265.631 12972337.483 20087855.524 10 0 59457 73800.00000 0 -8799201.258 10391690.345 21530904.412 10 0 59457 74700.00000 0 -9040683.850 7670533.654 22554205.902 10 0 59457 75600.00000 0 -9506998.266 4879254.355 23138098.655 10 0 59457 76500.00000 0 -10195677.257 2089753.698 23271524.962 10 0 59457 77400.00000 0 -11091530.078 -627329.996 22952222.736 10 0 59457 78300.00000 0 -12167224.845 -3205332.013 22186743.689 10 0 59457 79200.00000 0 -13384398.146 -5584093.154 20990299.381 10 0 59457 80100.00000 0 -14695243.410 -7712208.915 19386440.122 10 0 59457 81000.00000 0 -16044509.701 -9548904.659 17406574.795 10 0 59457 81900.00000 0 -17371825.964 -11065461.648 15089342.399 10 0 59457 82800.00000 0 -18614252.616 -12246137.849 12479848.717 10 0 59457 83700.00000 0 -19708953.522 -13088548.631 9628783.644 10 0 59457 84600.00000 0 -20595876.948 -13603494.915 6591436.615 10 0 59457 85500.00000 0 -21220334.144 -13814248.957 3426629.212 10 0 59458 0.00000 0 -21535368.957 -13755330.168 195585.220 10 0 59458 900.00000 0 -21503820.358 -13470824.005 -3039241.206 10 0 59458 1800.00000 0 -21099994.027 -13012315.373 -6215356.556 10 0 59458 2700.00000 0 -20310872.350 -12436523.517 -9271417.833 10 0 59458 3600.00000 0 -19136814.980 -11802737.068 -12148398.801 10 0 59458 4500.00000 0 -17591719.378 -11170156.006 -14790711.973 10 0 59458 5400.00000 0 -15702634.786 -10595250.734 -17147266.253 10 0 59458 6300.00000 0 -13508844.178 -10129247.743 -19172441.369 10 0 59458 7200.00000 0 -11060450.665 -9815846.103 -20826961.513 10 0 59458 8100.00000 0 -8416524.664 -9689259.796 -22078652.398 10 0 59458 9000.00000 0 -5642885.994 -9772667.747 -22903067.703 10 0 59458 9900.00000 0 -2809610.178 -10077137.070 -23283972.848 10 0 59458 10800.00000 0 11640.424 -10601065.923 -23213676.316 10 0 59458 11700.00000 0 2750352.354 -11330171.362 -22693201.049 10 0 59458 12600.00000 0 5339851.934 -12238025.212 -21732291.000 10 0 59458 13500.00000 0 7719840.710 -13287118.359 -20349250.692 10 0 59458 14400.00000 0 9838670.466 -14430411.705 -18570618.567 10 0 59458 15300.00000 0 11655262.639 -15613311.243 -16430678.041 10 0 59458 16200.00000 0 13140591.127 -16775986.236 -13970813.463 10 0 59458 17100.00000 0 14278665.128 -17855934.173 -11238721.474 10 0 59458 18000.00000 0 15066969.179 -18790684.644 -8287491.706 10 0 59458 18900.00000 0 15516340.535 -19520527.352 -5174573.954 10 0 59458 19800.00000 0 15650287.962 -19991147.399 -1960651.857 10 0 59458 20700.00000 0 15503780.179 -20156054.110 1291554.034 10 0 59458 21600.00000 0 15121555.449 -19978697.868 4518529.077 10 0 59458 22500.00000 0 14556024.872 -19434182.510 7657226.943 10 0 59458 23400.00000 0 13864859.950 -18510498.143 10646324.495 10 0 59458 24300.00000 0 13108368.963 -17209220.093 13427442.193 10 0 59458 25200.00000 0 12346775.952 -15545642.924 15946303.843 10 0 59458 26100.00000 0 11637520.219 -13548343.221 18153810.984 10 0 59458 27000.00000 0 11032693.020 -11258189.707 20007009.520 10 0 59458 27900.00000 0 10576721.692 -8726843.045 21469928.962 10 0 59458 28800.00000 0 10304400.118 -6014809.676 22514277.761 10 0 59458 29700.00000 0 10239348.913 -3189132.706 23119981.785 10 0 59458 30600.00000 0 10392969.604 -320817.789 23275556.645 10 0 59458 31500.00000 0 10763935.502 2517897.299 22978308.173 10 0 59458 32400.00000 0 11338238.767 5256315.106 22234359.135 10 0 59458 33300.00000 0 12089789.419 7827977.698 21058503.630 10 0 59458 34200.00000 0 12981538.819 10173181.163 19473894.036 10 0 59458 35100.00000 0 13967078.260 12241202.651 17511568.400 10 0 59458 36000.00000 0 14992643.817 13992149.747 15209828.934 10 0 59458 36900.00000 0 15999442.041 15398358.120 12613484.930 10 0 59458 37800.00000 0 16926198.299 16445282.552 9772975.519 10 0 59458 38700.00000 0 17711820.832 17131847.549 6743389.630 10 0 59458 39600.00000 0 18298069.317 17470245.967 3583402.161 10 0 59458 40500.00000 0 18632116.993 17485196.848 354146.552 10 0 59458 41400.00000 0 18668900.199 17212695.572 -2881955.250 10 0 59458 42300.00000 0 18373158.134 16698310.001 -6062383.720 10 0 59458 43200.00000 0 17721078.588 15995094.616 -9125711.944 10 0 59458 44100.00000 0 16701481.556 15161209.883 -12012773.542 10 0 59458 45000.00000 0 15316491.548 14257345.877 -14667787.303 10 0 59458 45900.00000 0 13581670.125 13344056.932 -17039418.436 10 0 59458 46800.00000 0 11525602.055 12479117.540 -19081757.534 10 0 59458 47700.00000 0 9188950.565 11715008.856 -20755199.562 10 0 59458 48600.00000 0 6623018.636 11096639.879 -22027207.020 10 0 59458 49500.00000 0 3887873.230 10659397.992 -22872943.117 10 0 59458 50400.00000 0 1050107.372 10427610.379 -23275762.811 10 0 59458 51300.00000 0 -1819670.158 10413481.352 -23227551.795 10 0 59458 52200.00000 0 -4649516.208 10616551.366 -22728905.851 10 0 59458 53100.00000 0 -7368896.662 11023702.377 -21789145.510 10 0 59458 54000.00000 0 -9911379.667 11609711.662 -20426163.763 10 0 59458 54900.00000 0 -12217167.585 12338333.478 -18666107.436 10 0 59458 55800.00000 0 -14235362.256 13163865.609 -16542896.002 10 0 59458 56700.00000 0 -15925868.436 14033137.035 -14097584.872 10 0 59458 57600.00000 0 -17260854.625 14887834.494 -11377583.479 10 0 59458 58500.00000 0 -18225708.424 15667070.410 -8435741.956 10 0 59458 59400.00000 0 -18819444.667 16310083.484 -5329323.351 10 0 59458 60300.00000 0 -19054547.737 16758956.474 -2118881.324 10 0 59458 61200.00000 0 -18956253.698 16961234.144 1132933.967 10 0 59458 62100.00000 0 -18561302.297 16872327.876 4362617.070 10 0 59458 63000.00000 0 -17916212.118 16457602.161 7507069.359 10 0 59458 63900.00000 0 -17075153.135 15694051.735 10504854.902 10 0 59458 64800.00000 0 -16097508.706 14571495.787 13297423.158 10 0 59458 65700.00000 0 -15045232.608 13093236.742 15830272.237 10 0 59458 66600.00000 0 -13980115.576 11276154.577 18054027.935 10 0 59458 67500.00000 0 -12961079.388 9150232.241 19925416.051 10 0 59458 68400.00000 0 -12041614.852 6757532.421 21408108.201 10 0 59458 69300.00000 0 -11267473.235 4150669.576 22473424.453 10 0 59458 70200.00000 0 -10674708.954 1390842.578 23100879.695 10 0 59458 71100.00000 0 -10288155.638 -1454488.413 23278564.205 10 0 59458 72000.00000 0 -10120398.461 -4314182.453 23003352.615 10 0 59458 72900.00000 0 -10171284.036 -7116147.289 22280939.109 10 0 59458 73800.00000 0 -10427986.039 -9790103.908 21125700.180 10 0 59458 74700.00000 0 -10865621.162 -12270271.441 19560389.607 10 0 59458 75600.00000 0 -11448386.874 -14497862.027 17615673.437 10 0 59458 76500.00000 0 -12131170.897 -16423283.772 15329515.481 10 0 59458 77400.00000 0 -12861562.905 -18007962.615 12746426.525 10 0 59458 78300.00000 0 -13582182.728 -19225710.189 9916592.583 10 0 59458 79200.00000 0 -14233226.674 -20063583.838 6894899.448 10 0 59458 80100.00000 0 -14755125.066 -20522205.922 3739872.512 10 0 59458 81000.00000 0 -15091200.006 -20615531.889 512551.956 10 0 59458 81900.00000 0 -15190212.743 -20370079.097 -2724675.705 10 0 59458 82800.00000 0 -15008694.938 -19823650.234 -5909268.043 10 0 59458 83700.00000 0 -14512967.218 -19023605.662 -8979717.445 10 0 59458 84600.00000 0 -13680761.328 -18024757.155 -11876720.624 10 0 59458 85500.00000 0 -12502378.477 -16886970.648 -14544305.821 10 0 59459 0.00000 0 -10981335.386 -15672577.256 -16930897.555 10 0 59459 900.00000 0 -9134469.738 -14443699.554 -18990300.176 10 0 59459 1800.00000 0 -6991500.435 -13259602.925 -20682581.860 10 0 59459 2700.00000 0 -4594056.684 -12174182.220 -21974843.904 10 0 59459 3600.00000 0 -1994215.421 -11233686.377 -22841860.547 10 0 59459 4500.00000 0 747396.421 -10474776.422 -23266577.211 10 0 59459 5400.00000 0 3563858.844 -9922997.544 -23240457.148 10 0 59459 6300.00000 0 6384484.552 -9591729.892 -22763668.779 10 0 59459 7200.00000 0 9137511.295 -9481663.339 -21845108.517 10 0 59459 8100.00000 0 11752851.178 -9580820.010 -20502256.683 10 0 59459 9000.00000 0 14164783.967 -9865125.836 -18760866.938 10 0 59459 9900.00000 0 16314482.659 -10299509.402 -16654492.895 10 0 59459 10800.00000 0 18152265.714 -10839483.955 -14223858.742 10 0 59459 11700.00000 0 19639480.730 -11433147.524 -11516084.072 10 0 59459 12600.00000 0 20749939.072 -12023517.695 -8583776.549 10 0 59459 13500.00000 0 21470839.456 -12551102.441 -5484009.215 10 0 59459 14400.00000 0 21803139.867 -12956597.379 -2277202.277 10 0 59459 15300.00000 0 21761360.697 -13183593.539 974068.079 10 0 59459 16200.00000 0 21372826.592 -13181178.497 4206309.170 10 0 59459 17100.00000 0 20676378.967 -12906317.750 7356373.500 10 0 59459 18000.00000 0 19720614.300 -12325912.440 10362715.520 10 0 59459 18900.00000 0 18561724.273 -11418443.415 13166616.508 10 0 59459 19800.00000 0 17261031.119 -10175129.642 15713351.270 10 0 59459 20700.00000 0 15882324.838 -8600550.302 17953271.794 10 0 59459 21600.00000 0 14489117.225 -6712703.326 19842785.234 10 0 59459 22500.00000 0 13141930.768 -4542497.681 21345206.295 10 0 59459 23400.00000 0 11895738.406 -2132701.297 22431467.197 10 0 59459 24300.00000 0 10797662.770 463610.264 23080671.932 10 0 59459 25200.00000 0 9885031.701 3185038.166 23280485.124 10 0 59459 26100.00000 0 9183870.798 5964193.390 23027349.487 10 0 59459 27000.00000 0 8707894.529 8730280.141 22326529.555 10 0 59459 27900.00000 0 8458035.793 11411821.320 21191982.828 10 0 59459 28800.00000 0 8422530.845 13939412.466 19646062.850 10 0 59459 29700.00000 0 8577552.997 16248390.269 17719061.818 10 0 59459 30600.00000 0 8888365.638 18281306.031 15448603.131 10 0 59459 31500.00000 0 9310943.669 19990103.046 12878896.933 10 0 59459 32400.00000 0 9793993.358 21337909.804 10059873.882 10 0 59459 33300.00000 0 10281284.460 22300377.092 7046214.327 10 0 59459 34200.00000 0 10714196.097 22866506.079 3896291.780 10 0 59459 35100.00000 0 11034369.513 23038935.572 671050.764 10 0 59459 36000.00000 0 11186356.826 22833678.799 -2567160.028 10 0 59459 36900.00000 0 11120155.539 22279322.490 -5755777.590 10 0 59459 37800.00000 0 10793523.482 21415722.891 -8833215.822 10 0 59459 38700.00000 0 10173978.079 20292253.590 -11740036.579 10 0 59459 39600.00000 0 9240396.836 18965678.131 -14420079.423 10 0 59459 40500.00000 0 7984152.220 17497735.376 -16821529.945 10 0 59459 41400.00000 0 6409732.947 15952537.125 -18897907.575 10 0 59459 42300.00000 0 4534824.545 14393885.012 -20608955.094 10 0 59459 43200.00000 0 2389843.842 12882616.991 -21921413.802 10 0 59459 44100.00000 0 16944.111 11474092.604 -22809670.000 10 0 59459 45000.00000 0 -2531470.781 10215920.855 -23256260.443 10 0 59459 45900.00000 0 -5194664.871 9146024.904 -23252226.601 10 0 59459 46800.00000 0 -7905844.919 8291124.390 -22797309.913 10 0 59459 47700.00000 0 -10594700.076 7665699.540 -21899982.718 10 0 59459 48600.00000 0 -13190103.434 7271481.628 -20577312.303 10 0 59459 49500.00000 0 -15622864.925 7097492.851 -18854658.400 10 0 59459 50400.00000 0 -17828421.811 7120635.961 -16765207.592 10 0 59459 51300.00000 0 -19749354.583 7306810.726 -14349351.329 10 0 59459 52200.00000 0 -21337622.393 7612511.921 -11653917.560 10 0 59459 53100.00000 0 -22556422.826 7986842.519 -8731269.469 10 0 59459 54000.00000 0 -23381596.156 8373857.362 -5638287.938 10 0 59459 54900.00000 0 -23802512.995 8715137.687 -2435257.438 10 0 59459 55800.00000 0 -23822406.068 8952486.058 815322.183 10 0 59459 56700.00000 0 -23458130.761 9030625.355 4049973.480 10 0 59459 57600.00000 0 -22739363.847 8899784.664 7205502.652 10 0 59459 58500.00000 0 -21707274.340 8518059.427 10220257.187 10 0 59459 59400.00000 0 -20412723.602 7853442.834 13035352.883 10 0 59459 60300.00000 0 -18914072.374 6885439.736 15595843.950 10 0 59459 61200.00000 0 -17274689.517 5606192.679 17851811.198 10 0 59459 62100.00000 0 -15560269.956 4021071.104 19759345.593 10 0 59459 63000.00000 0 -13836077.132 2148698.142 21281407.135 10 0 59459 63900.00000 0 -12164227.975 20414.057 22388542.058 10 0 59459 64800.00000 0 -10601135.742 -2320800.465 23059444.916 10 0 59459 65700.00000 0 -9195218.486 -4821894.982 23281355.699 10 0 59459 66600.00000 0 -7984968.729 -7421746.792 23050285.771 10 0 59459 67500.00000 0 -6997463.805 -10053500.661 22371070.126 10 0 59459 68400.00000 0 -6247376.947 -12647152.237 21257246.946 10 0 59459 69300.00000 0 -5736527.741 -15132266.981 19730768.780 10 0 59459 70200.00000 0 -5453987.564 -17440721.554 17821552.827 10 0 59459 71100.00000 0 -5376732.276 -19509354.372 15566880.564 10 0 59459 72000.00000 0 -5470811.854 -21282416.344 13010659.661 10 0 59459 72900.00000 0 -5692985.270 -22713721.775 10202563.328 10 0 59459 73800.00000 0 -5992750.056 -23768412.181 7197064.159 10 0 59459 74700.00000 0 -6314680.099 -24424262.031 4052381.328 10 0 59459 75600.00000 0 -6600972.949 -24672474.485 829361.115 10 0 59459 76500.00000 0 -6794099.722 -24517936.251 -2409688.283 10 0 59459 77400.00000 0 -6839446.926 -23978922.695 -5602186.043 10 0 59459 78300.00000 0 -6687840.180 -23086266.870 -8686470.418 10 0 59459 79200.00000 0 -6297844.889 -21882027.690 -11602971.293 10 0 59459 80100.00000 0 -5637748.240 -20417712.794 -14295342.456 10 0 59459 81000.00000 0 -4687139.912 -18752129.506 -16711533.371 10 0 59459 81900.00000 0 -3438025.214 -16948952.220 -18804781.333 10 0 59459 82800.00000 0 -1895423.299 -15074106.005 -20534506.148 10 0 59459 83700.00000 0 -77423.927 -13193073.606 -21867091.214 10 0 59459 84600.00000 0 1985301.972 -11368236.207 -22776536.584 10 0 59459 85500.00000 0 4250520.355 -9656357.234 -23244971.546 10 0 59460 0.00000 0 6665941.704 -8106312.860 -23263016.506 10 0 59460 900.00000 0 9171159.297 -6757163.474 -22829986.115 10 0 59460 1800.00000 0 11699940.081 -5636645.972 -21953928.408 10 0 59460 2700.00000 0 14182776.673 -4760151.997 -20651496.960 10 0 59460 3600.00000 0 16549595.952 -4130234.339 -18947656.488 10 0 59460 4500.00000 0 18732512.846 -3736665.183 -16875225.049 10 0 59460 5400.00000 0 20668514.933 -3557044.809 -14474259.449 10 0 59460 6300.00000 0 22301965.138 -3557936.949 -11791293.670 10 0 59460 7200.00000 0 23586816.378 -3696484.136 -8878443.676 10 0 59460 8100.00000 0 24488443.396 -3922435.419 -5792395.076 10 0 59460 9000.00000 0 24985012.587 -4180500.505 -2593293.194 10 0 59460 9900.00000 0 25068329.893 -4412929.636 656442.061 10 0 59460 10800.00000 0 24744129.189 -4562207.992 3893352.139 10 0 59460 11700.00000 0 24031787.655 -4573747.914 7054200.520 10 0 59460 12600.00000 0 22963479.609 -4398461.851 10077231.089 10 0 59460 13500.00000 0 21582804.854 -3995103.895 12903397.237 10 0 59460 14400.00000 0 19942950.518 -3332277.836 15477535.253 10 0 59460 15300.00000 0 18104465.717 -2390024.286 17749457.018 10 0 59460 16200.00000 0 16132745.002 -1160918.000 19674939.115 10 0 59460 17100.00000 0 14095328.730 349372.008 21216588.189 10 0 59460 18000.00000 0 12059135.983 2122083.373 22344565.399 10 0 59460 18900.00000 0 10087747.688 4125921.897 23037156.333 10 0 59460 19800.00000 0 8238854.616 6318159.182 23281176.374 10 0 59460 20700.00000 0 6561977.095 8646219.078 23072205.118 10 0 59460 21600.00000 0 5096550.724 11049685.277 22414647.168 10 0 59460 22500.00000 0 3870456.211 13462645.019 21321620.118 10 0 59460 23400.00000 0 2899052.127 15816270.220 19814673.890 10 0 59460 24300.00000 0 2184747.808 18041528.127 17923348.726 10 0 59460 25200.00000 0 1717130.810 20071908.816 15684581.965 10 0 59460 26100.00000 0 1473640.205 21846056.715 13141976.397 10 0 59460 27000.00000 0 1420754.415 23310197.988 10344945.230 10 0 59460 27900.00000 0 1515641.217 24420264.515 7347750.671 10 0 59460 28800.00000 0 1708198.819 25143628.027 4208454.855 10 0 59460 29700.00000 0 1943401.200 25460374.375 987803.113 10 0 59460 30600.00000 0 2163848.765 25364066.902 -2251939.534 10 0 59460 31500.00000 0 2312417.440 24861968.850 -5448177.030 10 0 59460 32400.00000 0 2334895.597 23974716.896 -8539174.414 10 0 59460 33300.00000 0 2182499.027 22735460.111 -11465231.841 10 0 59460 34200.00000 0 1814159.378 21188500.339 -14169819.335 10 0 59460 35100.00000 0 1198490.836 19387490.026 -16600652.001 10 0 59460 36000.00000 0 315352.883 17393261.382 -18710686.531 10 0 59460 36900.00000 0 -843056.568 15271375.600 -20459021.069 10 0 59460 37800.00000 0 -2271624.477 13089492.155 -21811682.220 10 0 59460 38700.00000 0 -3952288.358 10914665.577 -22742284.688 10 0 59460 39600.00000 0 -5854548.285 8810680.271 -23232550.991 10 0 59460 40500.00000 0 -7936506.973 6835532.678 -23272680.877 10 0 59460 41400.00000 0 -10146398.040 5039164.488 -22861562.386 10 0 59460 42300.00000 0 -12424542.175 3461540.924 -22006818.974 10 0 59460 43200.00000 0 -14705652.933 2131154.406 -20724689.881 10 0 59460 44100.00000 0 -16921398.722 1064016.838 -19039743.749 10 0 59460 45000.00000 0 -19003115.883 263183.999 -16984428.666 10 0 59460 45900.00000 0 -20884560.516 -281166.559 -14598464.991 10 0 59460 46800.00000 0 -22504583.885 -591105.850 -11928090.681 10 0 59460 47700.00000 0 -23809618.257 -699797.198 -9025172.222 10 0 59460 48600.00000 0 -24755867.141 -649861.395 -5946197.557 10 0 59460 49500.00000 0 -25311105.562 -491332.238 -2751170.403 10 0 59460 50400.00000 0 -25456012.116 -279289.602 497571.822 10 0 59460 51300.00000 0 -25184974.355 -71271.843 3736592.054 10 0 59460 52200.00000 0 -24506331.624 75420.548 6902613.694 10 0 59460 53100.00000 0 -23442043.936 106412.997 9933779.720 10 0 59460 54000.00000 0 -22026800.461 -27180.389 12770883.777 10 0 59460 54900.00000 0 -20306605.756 -366430.959 15358546.849 10 0 59460 55800.00000 0 -18336904.557 -942607.651 17646314.351 10 0 59460 56700.00000 0 -16180325.944 -1775613.318 19589650.714 10 0 59460 57600.00000 0 -13904143.807 -2872912.701 21150811.144 10 0 59460 58500.00000 0 -11577562.370 -4228997.800 22299573.238 10 0 59460 59400.00000 0 -9268942.353 -5825413.044 23013814.697 10 0 59460 60300.00000 0 -7043084.981 -7631338.437 23279926.913 10 0 59460 61200.00000 0 -4958687.840 -9604704.972 23093057.879 10 0 59460 62100.00000 0 -3066078.223 -11693794.159 22457181.546 10 0 59460 63000.00000 0 -1405317.067 -13839253.397 21384994.264 10 0 59460 63900.00000 0 -4750.332 -15976441.695 19897642.304 10 0 59460 64800.00000 0 1119934.774 -18038007.105 18024287.605 10 0 59460 65700.00000 0 1966112.740 -19956588.059 15801521.718 10 0 59460 66600.00000 0 2544068.559 -21667526.232 13272640.637 10 0 59460 67500.00000 0 2876302.166 -23111478.694 10486795.430 10 0 59460 68400.00000 0 2996320.684 -24236821.824 7498035.584 10 0 59460 69300.00000 0 2946971.490 -25001748.398 4364263.737 10 0 59460 70200.00000 0 2778387.750 -25375972.322 1146121.731 10 0 59460 71100.00000 0 2545633.613 -25341971.791 -2094171.176 10 0 59460 72000.00000 0 2306148.158 -24895720.682 -5294006.311 10 0 59460 72900.00000 0 2117095.056 -24046879.000 -8391578.127 10 0 59460 73800.00000 0 2032728.482 -22818435.193 -11327059.678 10 0 59460 74700.00000 0 2101884.823 -21245815.405 -14043739.820 10 0 59460 75600.00000 0 2365704.493 -19375496.265 -16489101.820 10 0 59460 76500.00000 0 2855678.723 -17263177.780 -18615824.147 10 0 59460 77400.00000 0 3592102.983 -14971590.742 -20382685.440 10 0 59460 78300.00000 0 4583002.277 -12568027.715 -21755357.362 10 0 59460 79200.00000 0 5823574.545 -10121697.933 -22707070.751 10 0 59460 80100.00000 0 7296177.415 -7701013.872 -23219142.401 10 0 59460 81000.00000 0 8970861.547 -5370920.193 -23281352.028 10 0 59460 81900.00000 0 10806431.491 -3190374.534 -22892161.206 10 0 59460 82800.00000 0 12751993.134 -1210084.025 -22058768.585 10 0 59460 83700.00000 0 14748926.471 529408.578 -20796998.420 10 0 59460 84600.00000 0 16733204.306 1999208.991 -19131022.263 10 0 59460 85500.00000 0 18637962.201 3183062.804 -17092916.845 99